Regional Weather Roundup
Issued by NWS

Home | Current Version | Previous Version | Graphics & Text | Print | Product List | Glossary On
Versions: 1 2 3 4 5 6 7 8 9 10 11 12 13 14 15 16 17 18 19 20 21 22 23 24 25 26 27 28 29 30 31 32 33 34 35 36 37 38 39 40 41 42 43 44 45 46 47 48 49 50
000
ASUS45 KPSR 200500
RWRAZ

PRELIMINARY ARIZONA REGIONAL HOURLY WEATHER ROUNDUP
NATIONAL WEATHER SERVICE PHOENIX AZ
1000 PM MST FRI DEC 19 2014

NOTE: FAIR INDICATES FEW OR NO CLOUDS BELOW 12,000 FEET WITH NO
SIGNIFICANT WEATHER AND/OR OBSTRUCTIONS TO VISIBILITY.

AZZ001>003-036-200600-
NORTHWEST ARIZONA

CITY           SKY/WX    TMP DP  RH WIND       PRES   REMARKS
KINGMAN        CLOUDY    41  33  73 CALM      30.17S
$$

AZZ004>008-015-016-018-200600-
NORTH CENTRAL ARIZONA

CITY           SKY/WX    TMP DP  RH WIND       PRES   REMARKS
GRAND CANYON   CLOUDY    25  24  96 CALM      30.21S
PRESCOTT       CLOUDY    34  27  75 S7        30.20R WCI  28
FLAGSTAFF      NOT AVBL
PAYSON         CLEAR     34  28  80 CALM      30.20F
PAGE           CLOUDY    38  29  70 SW6       30.21S WCI  33
$$

AZZ009>014-017-200600-
NORTHEAST ARIZONA

CITY           SKY/WX    TMP DP  RH WIND       PRES   REMARKS
WINSLOW        NOT AVBL
SAINT JOHNS    CLEAR     29  27  92 S3        30.22S
WINDOW ROCK    CLEAR     27  22  81 CALM      30.20F
$$

AZZ023-200600-
GREATER PHOENIX AREA

CITY           SKY/WX    TMP DP  RH WIND       PRES   REMARKS
PHOENIX        MOCLDY    54  40  59 CALM      30.12F
LUKE AFB       MOCLDY    49  42  76 N2        30.13S
DEER VALLEY    PTCLDY    48  41  76 N3        30.13F
SCOTTSDALE     PTCLDY    50  40  68 NE3       30.14F
MESA-GATEWAY   PTCLDY    46  39  76 CALM      30.16S
$$

AZZ027-028-200600-
SOUTHWEST MARICOPA COUNTY AND PINAL COUNTY

CITY           SKY/WX    TMP DP  RH WIND       PRES   REMARKS
CASA GRANDE    PTCLDY    46  39  76 CALM      30.16R
GILA BEND      FAIR      49  42  76 S5        30.15F
$$

AZZ503-504-507>509-200600-
SOUTHEAST ARIZONA

CITY           SKY/WX    TMP DP  RH WIND       PRES   REMARKS
TUCSON         CLEAR     47  40  76 S3        30.18S
DAVIS-MONTHAN  CLEAR     43  39  85 S7        30.15F
NOGALES        CLEAR     41  31  67 CALM      30.15S
SIERRA VISTA   CLEAR     37  30  75 SW6       30.18R WCI  33
SAFFORD        CLEAR     39  36  89 N6        30.18R WCI  35
$$

AZZ020-021-025-026-031-200600-
SOUTHWEST ARIZONA

CITY           SKY/WX    TMP DP  RH WIND       PRES   REMARKS
YUMA           NOT AVBL
$$

CAZ031-033-041-043-047-048-061-200600-
SOUTHERN CALIFORNIA

CITY           SKY/WX    TMP DP  RH WIND       PRES   REMARKS
DOWNTOWN L.A.  MOCLDY    56  50  80 CALM      30.17R
L.A. AIRPORT   MOCLDY    59  50  72 VRB5      30.18R
SAN DIEGO      MOCLDY    60  52  74 CALM      30.19S
BURBANK        MOCLDY    55  47  74 CALM      30.17S
ONTARIO        PTCLDY    54  47  77 CALM      30.17S
RIVERSIDE      PTCLDY    53  48  83 CALM      30.18S
PALM SPRINGS   PTCLDY    54  45  71 N5        30.17S
EL CENTRO NAS  CLEAR     53  42  66 CALM      30.14F
IMPERIAL       CLEAR     51  42  71 SW5       30.14S
BLYTHE         PTCLDY    53  49  86 NW7       30.15R
$$

NVZ020-UTZ003-200600-
SOUTHERN NEVADA-UTAH

CITY           SKY/WX    TMP DP  RH WIND       PRES   REMARKS
LAS VEGAS      NOT AVBL
SALT LAKE CITY CLOUDY    41  30  65 N7        30.14R
$$

NMZ009-TXZ055-200600-
NEW MEXICO-WEST TEXAS

CITY           SKY/WX    TMP DP  RH WIND       PRES   REMARKS
ALBUQUERQUE    PTCLDY    35  24  64 NW5       30.20R WCI  31
EL PASO        PTCLDY    38  28  67 E5        30.17R WCI  34
$$


........................KEY........................
SKY/WX - SKY CONDITION/WEATHER
TMP    - TEMPERATURE IN FAHRENHEIT
DP     - DEW POINT IN FAHRENHEIT
RH     - RELATIVE HUMIDITY IN PERCENT
WIND   - DIRECTION AND SPEED IN MILES PER HOUR (MPH)
VRB    - VARIABLE WIND DIRECTION
PRES   - MEAN SEA LEVEL PRESSURE IN INCHES OF MERCURY
         F - FALLING PRESSURE   R - RISING PRESSURE
         S - STEADY PRESSURE
VSB    - VISIBILITY IN MILES
HX     - HEAT INDEX IN FAHRENHEIT
WCI    - WIND CHILL INDEX IN FAHRENHEIT
TC     - TEMPERATURE IN CELSIUS WHICH IS ALSO KNOWN AS
         TEMPERATURE IN CENTIGRADE
AFB    - AIR FORCE BASE
         LUKE AFB IS LUKE AIR FORCE BASE
         DAVIS-MONTHAN IS DAVIS-MONTHAN AIR FORCE BASE
NAS    - NAVAL AIR STATION
         EL CENTRO NAS IS EL CENTRO NAVAL AIR STATION
N/A    - NOT AVAILABLE



USA.gov is the U.S. government's official web portal to all federal, state and local government web resources and services.